Location: Wellington
(41.3000°S, 174.7830°E)
Time: 01:49:17
(UTC+13:00)

Cosmos 540 Rocket - Pass Details

Date: 24 January 2019
Orbit: 739 x 754 km, 74.1° (Epoch: 13 October)

Event Time Altitude Azimuth Distance (km) Brightness Sun altitude
Rises 22:09:02 0° 195° (SSW) 3,246 7.7 -13.3°
Reaches altitude 10° 22:11:31 10° 189° (S) 2,313 6.8 -13.6°
Maximum altitude 22:16:36 49° 114° (ESE) 983 3.9 -14.3°
Enters shadow 22:19:37 23° 49° (NE) 1,582 4.5 -14.7°
